ARG1424 SABE-SAME

Flight info

Callsign ARG1424
Flight time 1h 29m
Altitude 38000
Route PAL9 NEPIS DCT NIN UL405 PAPIR PAPIR2Q
Aircraft B738/M-MSDFGHILRVWS/LB1

Departure

Time 2026-05-07 20:46
Airport Aeroparque Jorge Newbery (SABE)

Arrival

Time 2026-05-07 22:15
Airport Governor Francisco Gabrielli International Airport (SAME)
Time Latitude Longitude Altitude Speed Heading
2026-05-07 20:19 -34.55547 -58.41676 26 ft 0 kts 34°
2026-05-07 20:34 -34.55547 -58.41677 26 ft 1 kts 34°
2026-05-07 20:34 -34.55560 -58.41687 26 ft 3 kts 32°
2026-05-07 20:35 -34.55577 -58.41700 26 ft 3 kts 30°
2026-05-07 20:35 -34.55595 -58.41712 26 ft 3 kts 26°
2026-05-07 20:35 -34.55614 -58.41722 26 ft 3 kts 19°
2026-05-07 20:35 -34.55633 -58.41728 26 ft 3 kts
2026-05-07 20:36 -34.55650 -58.41725 26 ft 2 kts 320°
2026-05-07 20:36 -34.55654 -58.41720 26 ft 0 kts 304°
2026-05-07 20:38 -34.55647 -58.41733 26 ft 6 kts 304°
2026-05-07 20:38 -34.55619 -58.41783 26 ft 9 kts 304°
2026-05-07 20:39 -34.55615 -58.41846 26 ft 8 kts 223°
2026-05-07 20:39 -34.55660 -58.41876 26 ft 3 kts 172°
2026-05-07 20:39 -34.55682 -58.41846 26 ft 7 kts 125°
2026-05-07 20:39 -34.55711 -58.41797 26 ft 7 kts 125°
2026-05-07 20:40 -34.55742 -58.41727 26 ft 15 kts 117°
2026-05-07 20:40 -34.55791 -58.41612 26 ft 15 kts 117°
2026-05-07 20:40 -34.55837 -58.41504 26 ft 14 kts 117°
2026-05-07 20:40 -34.55879 -58.41400 26 ft 13 kts 116°
2026-05-07 20:41 -34.55919 -58.41304 26 ft 13 kts 120°
2026-05-07 20:41 -34.55969 -58.41220 26 ft 12 kts 127°
2026-05-07 20:41 -34.56019 -58.41140 26 ft 12 kts 127°
2026-05-07 20:41 -34.56051 -58.41089 26 ft 11 kts 127°
2026-05-07 20:42 -34.56113 -58.40990 26 ft 11 kts 127°
2026-05-07 20:42 -34.56155 -58.40918 26 ft 10 kts 124°
2026-05-07 20:42 -34.56167 -58.40851 26 ft 8 kts 90°
2026-05-07 20:42 -34.56188 -58.40793 26 ft 8 kts 124°
2026-05-07 20:43 -34.56237 -58.40705 26 ft 13 kts 124°
2026-05-07 20:43 -34.56270 -58.40644 26 ft 13 kts 124°
2026-05-07 20:43 -34.56344 -58.40537 26 ft 12 kts 140°
2026-05-07 20:43 -34.56406 -58.40470 26 ft 12 kts 138°
2026-05-07 20:44 -34.56447 -58.40426 26 ft 11 kts 138°
2026-05-07 20:44 -34.56519 -58.40378 26 ft 7 kts 188°
2026-05-07 20:44 -34.56549 -58.40396 26 ft 7 kts 217°
2026-05-07 20:44 -34.56553 -58.40445 26 ft 7 kts 303°
2026-05-07 20:45 -34.56549 -58.40452 26 ft 0 kts 304°
2026-05-07 20:45 -34.56542 -58.40466 26 ft 11 kts 304°
2026-05-07 20:45 -34.56340 -58.40827 26 ft 89 kts 304°
2026-05-07 20:45 -34.55872 -58.41664 28 ft 152 kts 304°
2026-05-07 20:46 -34.55221 -58.42834 445 ft 175 kts 304°
2026-05-07 20:46 -34.54647 -58.43862 1374 ft 164 kts 299°
2026-05-07 20:46 -34.53718 -58.44785 2029 ft 186 kts 332°
2026-05-07 20:46 -34.52368 -58.45011 2370 ft 213 kts 358°
2026-05-07 20:47 -34.50889 -58.44400 2802 ft 235 kts 22°
2026-05-07 20:47 -34.49460 -58.43406 3521 ft 238 kts 26°
2026-05-07 20:47 -34.47936 -58.42539 4075 ft 247 kts
2026-05-07 20:47 -34.46205 -58.42519 4468 ft 257 kts 342°
2026-05-07 20:48 -34.44608 -58.43472 5039 ft 258 kts 315°
2026-05-07 20:48 -34.43553 -58.45180 5874 ft 251 kts 290°
2026-05-07 20:48 -34.43240 -58.47227 6735 ft 247 kts 269°
2026-05-07 20:48 -34.43463 -58.49262 7564 ft 248 kts 262°
2026-05-07 20:49 -34.43721 -58.51359 8392 ft 249 kts 263°
2026-05-07 20:49 -34.43984 -58.53438 9193 ft 250 kts 263°
2026-05-07 20:49 -34.44247 -58.55524 9968 ft 252 kts 264°
2026-05-07 20:49 -34.44511 -58.57624 10563 ft 261 kts 265°
2026-05-07 20:50 -34.44795 -58.59890 10857 ft 280 kts 265°
2026-05-07 20:50 -34.45098 -58.62312 11132 ft 299 kts 265°
2026-05-07 20:50 -34.45414 -58.64843 11377 ft 317 kts 265°
2026-05-07 20:50 -34.45750 -58.67535 11789 ft 328 kts 266°
2026-05-07 20:51 -34.46096 -58.70315 12365 ft 335 kts 267°
2026-05-07 20:51 -34.46443 -58.73117 12975 ft 339 kts 267°
2026-05-07 20:51 -34.46798 -58.75974 13526 ft 346 kts 268°
2026-05-07 20:51 -34.47157 -58.78880 14096 ft 350 kts 268°
2026-05-07 20:52 -34.47517 -58.81794 14747 ft 353 kts 268°
2026-05-07 20:52 -34.47882 -58.84753 15345 ft 356 kts 268°
2026-05-07 20:52 -34.48249 -58.87731 15959 ft 359 kts 268°
2026-05-07 20:52 -34.48635 -58.90741 16553 ft 362 kts 268°
2026-05-07 20:53 -34.49023 -58.93729 17116 ft 364 kts 268°
2026-05-07 20:53 -34.49412 -58.96780 17639 ft 368 kts 268°
2026-05-07 20:53 -34.49798 -58.99846 18160 ft 370 kts 269°
2026-05-07 20:53 -34.50189 -59.02986 18673 ft 373 kts 269°
2026-05-07 20:54 -34.50571 -59.06067 19132 ft 377 kts 269°
2026-05-07 20:54 -34.50961 -59.09229 19628 ft 379 kts 269°
2026-05-07 20:54 -34.51352 -59.12412 20067 ft 383 kts 269°
2026-05-07 20:54 -34.51744 -59.15610 20502 ft 387 kts 270°
2026-05-07 20:55 -34.52141 -59.18863 20910 ft 391 kts 270°
2026-05-07 20:55 -34.52548 -59.22154 21285 ft 396 kts 270°
2026-05-07 20:55 -34.52970 -59.25464 21699 ft 399 kts 270°
2026-05-07 20:55 -34.53381 -59.28798 22082 ft 402 kts 271°
2026-05-07 20:56 -34.53789 -59.32172 22485 ft 405 kts 271°
2026-05-07 20:56 -34.54197 -59.35581 22836 ft 409 kts 271°
2026-05-07 20:56 -34.54603 -59.38991 23178 ft 412 kts 271°
2026-05-07 20:56 -34.55014 -59.42455 23518 ft 416 kts 271°
2026-05-07 20:57 -34.55426 -59.45933 23854 ft 419 kts 271°
2026-05-07 20:57 -34.55842 -59.49459 24282 ft 420 kts 271°
2026-05-07 20:57 -34.56251 -59.52922 24696 ft 420 kts 272°
2026-05-07 20:57 -34.56667 -59.56432 25083 ft 422 kts 272°
2026-05-07 20:58 -34.56996 -59.59998 25466 ft 417 kts 276°
2026-05-07 20:58 -34.57065 -59.63488 25833 ft 413 kts 279°
2026-05-07 20:58 -34.57018 -59.66931 26179 ft 413 kts 281°
2026-05-07 20:58 -34.56936 -59.70417 26525 ft 414 kts 281°
2026-05-07 20:59 -34.56857 -59.73911 26858 ft 415 kts 281°
2026-05-07 20:59 -34.56781 -59.77410 27185 ft 416 kts 281°
2026-05-07 20:59 -34.56705 -59.80927 27517 ft 416 kts 281°
2026-05-07 20:59 -34.56630 -59.84442 27817 ft 417 kts 281°
2026-05-07 21:00 -34.56555 -59.87950 28111 ft 418 kts 281°
2026-05-07 21:00 -34.56478 -59.91492 28394 ft 419 kts 281°
2026-05-07 21:00 -34.56402 -59.95024 28762 ft 417 kts 281°
2026-05-07 21:00 -34.56326 -59.98514 29253 ft 413 kts 281°
2026-05-07 21:01 -34.56251 -60.01984 29780 ft 408 kts 281°
2026-05-07 21:01 -34.56201 -60.05410 30308 ft 403 kts 281°
2026-05-07 21:01 -34.56145 -60.08794 30683 ft 401 kts 281°
2026-05-07 21:01 -34.56083 -60.12184 30929 ft 403 kts 280°
2026-05-07 21:02 -34.56016 -60.15542 31214 ft 403 kts 280°
2026-05-07 21:02 -34.55945 -60.18976 31528 ft 402 kts 280°
2026-05-07 21:02 -34.55874 -60.22331 31804 ft 402 kts 279°
2026-05-07 21:02 -34.55800 -60.25711 32085 ft 402 kts 279°
2026-05-07 21:03 -34.55723 -60.29153 32362 ft 402 kts 279°
2026-05-07 21:03 -34.55647 -60.32494 32626 ft 402 kts 279°
2026-05-07 21:03 -34.55569 -60.35883 32889 ft 402 kts 278°
2026-05-07 21:03 -34.55490 -60.39280 33146 ft 402 kts 278°
2026-05-07 21:04 -34.55410 -60.42669 33397 ft 403 kts 278°
2026-05-07 21:04 -34.55329 -60.46064 33644 ft 403 kts 278°
2026-05-07 21:04 -34.55246 -60.49467 33885 ft 403 kts 278°
2026-05-07 21:04 -34.55164 -60.52850 34121 ft 403 kts 277°
2026-05-07 21:05 -34.55094 -60.56259 34353 ft 404 kts 277°
2026-05-07 21:05 -34.55023 -60.59667 34582 ft 404 kts 277°
2026-05-07 21:05 -34.54940 -60.63070 34805 ft 404 kts 277°
2026-05-07 21:05 -34.54852 -60.66492 35025 ft 404 kts 277°
2026-05-07 21:06 -34.54760 -60.69904 35241 ft 405 kts 277°
2026-05-07 21:06 -34.54666 -60.73315 35451 ft 405 kts 276°
2026-05-07 21:06 -34.54570 -60.76736 35658 ft 406 kts 276°
2026-05-07 21:06 -34.54474 -60.80158 35859 ft 406 kts 276°
2026-05-07 21:07 -34.54377 -60.83576 36056 ft 407 kts 276°
2026-05-07 21:07 -34.54280 -60.87015 36250 ft 407 kts 276°
2026-05-07 21:07 -34.54184 -60.90438 36439 ft 407 kts 276°
2026-05-07 21:07 -34.53968 -60.93863 36620 ft 406 kts 281°
2026-05-07 21:08 -34.53529 -60.97231 36764 ft 406 kts 283°
2026-05-07 21:08 -34.53005 -61.00600 36972 ft 405 kts 283°
2026-05-07 21:08 -34.52476 -61.03956 37184 ft 405 kts 283°
2026-05-07 21:08 -34.51947 -61.07325 37318 ft 407 kts 283°
2026-05-07 21:09 -34.51417 -61.10704 37414 ft 409 kts 283°
2026-05-07 21:09 -34.50887 -61.14088 37519 ft 411 kts 283°
2026-05-07 21:09 -34.50367 -61.17515 37574 ft 413 kts 282°
2026-05-07 21:10 -34.49341 -61.24328 37580 ft 413 kts 283°
2026-05-07 21:10 -34.48265 -61.31203 37580 ft 412 kts 283°
2026-05-07 21:11 -34.47195 -61.37966 37580 ft 412 kts 283°
2026-05-07 21:11 -34.45569 -61.48199 37581 ft 412 kts 283°
2026-05-07 21:12 -34.44489 -61.54998 37580 ft 411 kts 283°
2026-05-07 21:12 -34.43388 -61.61803 37580 ft 411 kts 283°
2026-05-07 21:13 -34.42284 -61.68594 37580 ft 411 kts 283°
2026-05-07 21:13 -34.41205 -61.75393 37581 ft 411 kts 283°
2026-05-07 21:14 -34.40120 -61.82194 37580 ft 411 kts 283°
2026-05-07 21:14 -34.39009 -61.88974 37580 ft 411 kts 283°
2026-05-07 21:15 -34.37891 -61.95753 37581 ft 410 kts 283°
2026-05-07 21:15 -34.36770 -62.02522 37580 ft 410 kts 283°
2026-05-07 21:16 -34.35648 -62.09297 37580 ft 410 kts 283°
2026-05-07 21:16 -34.34527 -62.16071 37580 ft 410 kts 283°
2026-05-07 21:17 -34.33407 -62.22784 37580 ft 410 kts 283°
2026-05-07 21:17 -34.32274 -62.29550 37581 ft 410 kts 283°
2026-05-07 21:18 -34.31139 -62.36294 37581 ft 410 kts 283°
2026-05-07 21:18 -34.29999 -62.43051 37581 ft 409 kts 283°
2026-05-07 21:19 -34.28855 -62.49805 37580 ft 409 kts 283°
2026-05-07 21:19 -34.27747 -62.56555 37580 ft 409 kts 283°
2026-05-07 21:20 -34.26627 -62.63306 37581 ft 409 kts 283°
2026-05-07 21:20 -34.25494 -62.70035 37581 ft 409 kts 283°
2026-05-07 21:21 -34.24352 -62.76772 37580 ft 409 kts 283°
2026-05-07 21:21 -34.23204 -62.83504 37581 ft 409 kts 283°
2026-05-07 21:22 -34.22054 -62.90227 37581 ft 408 kts 283°
2026-05-07 21:22 -34.20906 -62.96912 37673 ft 410 kts 282°
2026-05-07 21:23 -34.19769 -63.03681 37791 ft 414 kts 282°
2026-05-07 21:23 -34.18587 -63.10522 37844 ft 419 kts 281°
2026-05-07 21:24 -34.17375 -63.17453 37867 ft 425 kts 281°
2026-05-07 21:24 -34.16148 -63.24448 37875 ft 425 kts 281°
2026-05-07 21:25 -34.14923 -63.31413 37876 ft 424 kts 281°
2026-05-07 21:25 -34.13688 -63.38362 37876 ft 424 kts 282°
2026-05-07 21:26 -34.12302 -63.45287 37876 ft 424 kts 283°
2026-05-07 21:26 -34.10950 -63.52218 37876 ft 424 kts 282°
2026-05-07 21:27 -34.09595 -63.59132 37876 ft 424 kts 283°
2026-05-07 21:27 -34.08218 -63.66048 37876 ft 423 kts 283°
2026-05-07 21:28 -34.06838 -63.72942 37876 ft 423 kts 283°
2026-05-07 21:28 -34.05453 -63.79851 37876 ft 423 kts 283°
2026-05-07 21:29 -34.04072 -63.86737 37876 ft 423 kts 283°
2026-05-07 21:29 -34.02702 -63.93589 37876 ft 423 kts 283°
2026-05-07 21:30 -34.01317 -64.00482 37876 ft 423 kts 283°
2026-05-07 21:30 -33.99931 -64.07363 37876 ft 423 kts 283°
2026-05-07 21:31 -33.98554 -64.14256 37876 ft 422 kts 282°
2026-05-07 21:31 -33.97438 -64.19984 37876 ft 422 kts 283°
2026-05-07 21:32 -33.96052 -64.26860 37876 ft 422 kts 283°
2026-05-07 21:32 -33.94652 -64.33727 37876 ft 422 kts 283°
2026-05-07 21:33 -33.93249 -64.40589 37876 ft 423 kts 283°
2026-05-07 21:33 -33.91836 -64.47491 37876 ft 425 kts 283°
2026-05-07 21:34 -33.90429 -64.54402 37876 ft 424 kts 283°
2026-05-07 21:34 -33.89009 -64.61281 37876 ft 424 kts 283°
2026-05-07 21:35 -33.87572 -64.68172 37876 ft 424 kts 283°
2026-05-07 21:35 -33.86132 -64.75062 37876 ft 424 kts 283°
2026-05-07 21:36 -33.84694 -64.81948 37876 ft 424 kts 283°
2026-05-07 21:36 -33.83257 -64.88829 37876 ft 424 kts 283°
2026-05-07 21:37 -33.81806 -64.95747 37902 ft 429 kts 283°
2026-05-07 21:37 -33.80366 -65.02703 37920 ft 434 kts 283°
2026-05-07 21:38 -33.78919 -65.09735 37927 ft 433 kts 283°
2026-05-07 21:38 -33.77440 -65.16749 37928 ft 432 kts 283°
2026-05-07 21:39 -33.75950 -65.23766 37933 ft 434 kts 283°
2026-05-07 21:39 -33.74455 -65.30791 37934 ft 434 kts 283°
2026-05-07 21:40 -33.72959 -65.37819 37934 ft 434 kts 283°
2026-05-07 21:40 -33.71377 -65.44804 37934 ft 433 kts 285°
2026-05-07 21:41 -33.69696 -65.51757 37934 ft 433 kts 285°
2026-05-07 21:41 -33.68034 -65.58704 37934 ft 433 kts 285°
2026-05-07 21:42 -33.66383 -65.65624 37932 ft 433 kts 285°
2026-05-07 21:42 -33.64723 -65.72577 37933 ft 433 kts 285°
2026-05-07 21:43 -33.63064 -65.79578 37933 ft 433 kts 284°
2026-05-07 21:43 -33.61445 -65.86491 37933 ft 433 kts 285°
2026-05-07 21:44 -33.59794 -65.93444 37932 ft 433 kts 285°
2026-05-07 21:44 -33.58131 -66.00396 37932 ft 433 kts 285°
2026-05-07 21:45 -33.56495 -66.07334 37938 ft 430 kts 285°
2026-05-07 21:45 -33.54855 -66.14138 37933 ft 420 kts 283°
2026-05-07 21:46 -33.53229 -66.20836 37934 ft 418 kts 283°
2026-05-07 21:46 -33.51605 -66.27507 37934 ft 416 kts 284°
2026-05-07 21:47 -33.49981 -66.34170 37619 ft 418 kts 282°
2026-05-07 21:47 -33.49171 -66.37492 37307 ft 412 kts 282°
2026-05-07 21:47 -33.48278 -66.40739 36792 ft 412 kts 287°
2026-05-07 21:48 -33.47231 -66.43939 36186 ft 412 kts 287°
2026-05-07 21:48 -33.46190 -66.47129 35665 ft 410 kts 286°
2026-05-07 21:48 -33.45169 -66.50303 35214 ft 406 kts 286°
2026-05-07 21:48 -33.44165 -66.53442 34767 ft 402 kts 285°
2026-05-07 21:49 -33.43170 -66.56558 34326 ft 399 kts 283°
2026-05-07 21:49 -33.42187 -66.59650 33872 ft 396 kts 282°
2026-05-07 21:49 -33.41345 -66.62724 33434 ft 390 kts 278°
2026-05-07 21:49 -33.40607 -66.65829 32999 ft 387 kts 277°
2026-05-07 21:50 -33.39871 -66.68921 32568 ft 385 kts 277°
2026-05-07 21:50 -33.39129 -66.71994 32143 ft 383 kts 276°
2026-05-07 21:50 -33.38384 -66.75046 31721 ft 381 kts 276°
2026-05-07 21:50 -33.37639 -66.78086 31303 ft 380 kts 276°
2026-05-07 21:51 -33.36894 -66.81108 30887 ft 378 kts 275°
2026-05-07 21:51 -33.36151 -66.84117 30477 ft 376 kts 275°
2026-05-07 21:51 -33.35408 -66.87119 30070 ft 375 kts 274°
2026-05-07 21:51 -33.34681 -66.90111 29672 ft 373 kts 273°
2026-05-07 21:52 -33.33975 -66.93083 29277 ft 372 kts 273°
2026-05-07 21:52 -33.33254 -66.96048 28883 ft 370 kts 273°
2026-05-07 21:52 -33.32527 -66.98999 28491 ft 369 kts 273°
2026-05-07 21:52 -33.31799 -67.01932 28102 ft 367 kts 273°
2026-05-07 21:53 -33.31071 -67.04855 27715 ft 366 kts 272°
2026-05-07 21:53 -33.30345 -67.07759 27332 ft 364 kts 272°
2026-05-07 21:53 -33.29620 -67.10658 26953 ft 363 kts 272°
2026-05-07 21:53 -33.28898 -67.13540 26579 ft 364 kts 272°
2026-05-07 21:54 -33.28163 -67.16471 26202 ft 372 kts 272°
2026-05-07 21:54 -33.27415 -67.19456 25817 ft 378 kts 272°
2026-05-07 21:54 -33.26664 -67.22449 25429 ft 381 kts 272°
2026-05-07 21:54 -33.25895 -67.25517 25030 ft 379 kts 272°
2026-05-07 21:55 -33.25114 -67.28523 24637 ft 380 kts 273°
2026-05-07 21:55 -33.24262 -67.31478 24247 ft 380 kts 274°
2026-05-07 21:55 -33.23380 -67.34489 23845 ft 379 kts 274°
2026-05-07 21:55 -33.22521 -67.37450 23449 ft 377 kts 273°
2026-05-07 21:56 -33.21684 -67.40409 23054 ft 374 kts 272°
2026-05-07 21:56 -33.20870 -67.43311 22668 ft 373 kts 273°
2026-05-07 21:56 -33.20039 -67.46236 22277 ft 371 kts 273°
2026-05-07 21:56 -33.19208 -67.49147 21886 ft 370 kts 273°
2026-05-07 21:57 -33.18375 -67.52051 21496 ft 368 kts 273°
2026-05-07 21:57 -33.17549 -67.54922 21108 ft 366 kts 273°
2026-05-07 21:57 -33.16724 -67.57787 20720 ft 363 kts 273°
2026-05-07 21:57 -33.15901 -67.60641 20332 ft 361 kts 273°
2026-05-07 21:58 -33.15088 -67.63461 19949 ft 359 kts 272°
2026-05-07 21:58 -33.14278 -67.66267 19569 ft 356 kts 272°
2026-05-07 21:58 -33.13474 -67.69052 19193 ft 354 kts 272°
2026-05-07 21:58 -33.12676 -67.71817 18821 ft 351 kts 272°
2026-05-07 21:59 -33.11966 -67.74554 18456 ft 338 kts 267°
2026-05-07 21:59 -33.11543 -67.77262 18085 ft 326 kts 262°
2026-05-07 21:59 -33.11281 -67.79921 17721 ft 319 kts 260°
2026-05-07 21:59 -33.11095 -67.82538 17362 ft 314 kts 259°
2026-05-07 22:00 -33.10934 -67.85126 17006 ft 312 kts 260°
2026-05-07 22:00 -33.10767 -67.87665 16655 ft 310 kts 261°
2026-05-07 22:00 -33.10596 -67.90217 16303 ft 308 kts 262°
2026-05-07 22:00 -33.10417 -67.92758 15949 ft 306 kts 262°
2026-05-07 22:01 -33.10238 -67.95278 15602 ft 304 kts 263°
2026-05-07 22:01 -33.10057 -67.97783 15250 ft 302 kts 264°
2026-05-07 22:01 -33.09877 -68.00271 14902 ft 300 kts 264°
2026-05-07 22:01 -33.09695 -68.02748 14553 ft 299 kts 265°
2026-05-07 22:02 -33.09517 -68.05208 14206 ft 297 kts 266°
2026-05-07 22:02 -33.09334 -68.07656 13859 ft 296 kts 266°
2026-05-07 22:02 -33.09152 -68.10100 13512 ft 295 kts 267°
2026-05-07 22:02 -33.08972 -68.12532 13166 ft 294 kts 266°
2026-05-07 22:03 -33.08792 -68.14960 12823 ft 292 kts 267°
2026-05-07 22:03 -33.08627 -68.17364 12484 ft 291 kts 266°
2026-05-07 22:03 -33.08460 -68.19766 12142 ft 289 kts 267°
2026-05-07 22:03 -33.08322 -68.22140 11821 ft 286 kts 265°
2026-05-07 22:04 -33.08282 -68.24498 11483 ft 284 kts 263°
2026-05-07 22:04 -33.08182 -68.26858 11141 ft 285 kts 268°
2026-05-07 22:04 -33.07970 -68.29212 10798 ft 285 kts 269°
2026-05-07 22:04 -33.07733 -68.31548 10460 ft 284 kts 269°
2026-05-07 22:05 -33.07518 -68.33895 10122 ft 283 kts 269°
2026-05-07 22:05 -33.07317 -68.36198 9992 ft 274 kts 269°
2026-05-07 22:05 -33.07134 -68.38418 9883 ft 265 kts 269°
2026-05-07 22:05 -33.06959 -68.40594 9590 ft 263 kts 269°
2026-05-07 22:06 -33.06788 -68.42754 9285 ft 262 kts 269°
2026-05-07 22:06 -33.06618 -68.44925 8975 ft 261 kts 269°
2026-05-07 22:06 -33.06450 -68.47078 8670 ft 260 kts 270°
2026-05-07 22:06 -33.06283 -68.49224 8357 ft 260 kts 270°
2026-05-07 22:07 -33.06116 -68.51363 8038 ft 260 kts 270°
2026-05-07 22:07 -33.05950 -68.53509 7718 ft 259 kts 271°
2026-05-07 22:07 -33.05785 -68.55628 7548 ft 253 kts 271°
2026-05-07 22:07 -33.05625 -68.57684 7469 ft 243 kts 271°
2026-05-07 22:08 -33.05475 -68.59628 7400 ft 234 kts 271°
2026-05-07 22:08 -33.05326 -68.61537 7322 ft 224 kts 271°
2026-05-07 22:08 -33.05204 -68.63353 7094 ft 221 kts 268°
2026-05-07 22:08 -33.05191 -68.65204 6853 ft 224 kts 265°
2026-05-07 22:09 -33.05212 -68.66656 6667 ft 224 kts 266°
2026-05-07 22:09 -33.05224 -68.68583 6506 ft 222 kts 266°
2026-05-07 22:09 -33.05218 -68.70419 6470 ft 221 kts 267°
2026-05-07 22:09 -33.05204 -68.72252 6425 ft 221 kts 267°
2026-05-07 22:10 -33.05187 -68.74080 6379 ft 221 kts 267°
2026-05-07 22:10 -33.05168 -68.75894 6343 ft 216 kts 266°
2026-05-07 22:10 -33.05135 -68.77643 6287 ft 204 kts 269°
2026-05-07 22:10 -33.04692 -68.79214 6166 ft 209 kts 302°
2026-05-07 22:11 -33.03464 -68.80129 5953 ft 214 kts 347°
2026-05-07 22:11 -33.02000 -68.80054 5736 ft 212 kts
2026-05-07 22:11 -33.00527 -68.79858 5422 ft 209 kts
2026-05-07 22:11 -32.99106 -68.79682 5142 ft 205 kts
2026-05-07 22:12 -32.97720 -68.79544 4884 ft 194 kts
2026-05-07 22:12 -32.96410 -68.79490 4627 ft 184 kts
2026-05-07 22:12 -32.95144 -68.79462 4380 ft 177 kts 359°
2026-05-07 22:12 -32.93964 -68.79442 4168 ft 167 kts 359°
2026-05-07 22:13 -32.92820 -68.79425 3929 ft 162 kts
2026-05-07 22:13 -32.91689 -68.79408 3722 ft 162 kts
2026-05-07 22:13 -32.90563 -68.79392 3509 ft 162 kts
2026-05-07 22:13 -32.89442 -68.79376 3297 ft 159 kts
2026-05-07 22:14 -32.88347 -68.79368 3053 ft 156 kts 360°
2026-05-07 22:14 -32.87268 -68.79359 2884 ft 153 kts
2026-05-07 22:14 -32.86202 -68.79336 2661 ft 155 kts
2026-05-07 22:14 -32.85127 -68.79321 2477 ft 154 kts
2026-05-07 22:15 -32.84085 -68.79300 2326 ft 146 kts
2026-05-07 22:15 -32.83203 -68.79288 2319 ft 94 kts
2026-05-07 22:15 -32.82885 -68.79280 2319 ft 46 kts 359°
2026-05-07 22:15 -32.82560 -68.79279 2319 ft 13 kts 339°
2026-05-07 22:16 -32.82545 -68.79325 2319 ft 7 kts 265°
2026-05-07 22:16 -32.82545 -68.79347 2319 ft 5 kts 268°
2026-05-07 22:16 -32.82553 -68.79384 2319 ft 5 kts 243°
2026-05-07 22:16 -32.82594 -68.79431 2319 ft 10 kts 224°
2026-05-07 22:17 -32.82640 -68.79489 2319 ft 9 kts 226°
2026-05-07 22:17 -32.82668 -68.79556 2319 ft 9 kts 249°
2026-05-07 22:17 -32.82683 -68.79603 2319 ft 9 kts 252°
2026-05-07 22:17 -32.82701 -68.79672 2319 ft 8 kts 251°
2026-05-07 22:18 -32.82741 -68.79702 2319 ft 2 kts 181°
2026-05-07 22:18 -32.82763 -68.79708 2319 ft 2 kts 238°
2026-05-07 22:18 -32.82766 -68.79731 2319 ft 5 kts 266°
2026-05-07 22:19 -32.82767 -68.79760 2319 ft 3 kts 270°
2026-05-07 22:19 -32.82767 -68.79770 2319 ft 1 kts 270°
2026-05-07 22:19 -32.82767 -68.79773 2319 ft 2 kts 270°
2026-05-07 22:19 -32.82767 -68.79775 2319 ft 0 kts 270°